Probability
15 13 12 11 8 7 6 6 6 4 3 2 2 3 2 2 2 2 2 1 0 0 1 0 0 0 0 0 0 0 0 0 0 0 0 0 0 0 0 0 0 0 0
18 16 17 16 11 8 7 7 6 4 3 2 1 1 1 1 1 1 1 0 0 0 1 0 0 0 0 0 0 0 0 0 0 0 0 0 0 0 0 0 0 0 0
19 19 20 21 17 13 11 9 7 5 4 2 1 0 0 0 0 0 0 0 0 0 0 0 0 0 0 0 0 0 0 0 0 0 0 0 0 0 0 0 0 0 0
20 20 22 24 23 19 15 11 8 7 5 2 0 0 0 0 0 0 1 0 0 0 0 0 0 0 0 0 0 0 0 0 0 0 0 0 0 0 0 0 0 0 0
21 21 24 27 26 21 17 12 9 8 6 3 1 0 0 0 0 0 1 1 1 1 0 0 0 0 0 0 0 0 0 0 0 0 0 0 0 0 0 0 0 0 0
22 23 25 28 26 21 16 12 9 7 6 5 3 1 0 0 0 0 1 2 3 3 2 0 0 0 0 0 0 0 0 0 0 0 0 0 1 1 1 0 0 0 0
24 24 25 28 27 22 16 12 8 7 6 6 3 1 1 0 1 1 2 4 5 5 4 2 0 0 1 1 0 1 2 1 0 0 0 0 1 2 1 0 0 0 0
24 23 23 26 27 24 19 13 9 7 7 6 4 3 2 2 3 3 3 5 6 6 5 3 2 2 2 3 2 2 2 1 0 0 0 0 1 2 1 1 1 0 0
21 20 20 20 20 20 17 13 10 9 8 7 6 5 4 5 5 4 3 4 5 5 4 4 5 5 5 6 5 3 2 0 0 0 0 0 1 2 2 2 2 1 0
16 16 16 14 13 12 11 10 9 9 9 8 7 7 6 6 6 4 3 4 5 5 4 5 6 8 7 6 4 2 1 0 0 0 0 0 2 4 4 3 3 1 0
13 13 13 13 12 9 7 7 7 8 8 7 7 7 7 6 5 4 3 3 4 5 5 5 6 7 6 4 2 2 2 1 0 0 0 1 4 7 7 6 5 3 2
11 11 12 12 12 11 8 6 6 7 7 6 6 6 6 5 4 3 2 2 3 5 5 4 4 5 4 3 2 2 2 1 0 0 1 3 7 10 10 8 7 6 4
9 10 10 11 12 12 10 8 6 6 6 6 6 6 5 4 3 3 2 2 2 2 2 2 2 2 2 2 3 4 3 2 1 0 1 4 11 13 11 9 9 7 5
6 7 9 10 11 12 11 9 7 6 6 6 6 5 5 3 3 2 2 2 1 1 1 1 1 1 1 2 4 4 4 2 1 0 0 4 11 15 13 10 9 7 5
5 5 7 9 10 10 10 8 7 6 6 5 5 4 3 2 1 1 1 2 1 1 2 2 2 2 2 3 4 4 3 2 1 0 0 2 7 13 14 10 7 6 5
4 4 5 8 9 9 9 8 7 6 5 4 4 3 2 1 0 0 0 1 1 0 2 3 3 3 4 5 4 3 3 2 2 1 1 1 3 7 10 9 7 6 6
3 3 4 6 7 7 7 7 6 4 3 3 3 2 1 0 0 0 0 0 0 0 1 2 3 3 4 6 5 3 3 4 4 4 3 1 1 3 4 6 8 9 9
3 3 3 4 5 6 6 5 3 2 1 1 1 1 1 0 0 0 0 0 0 0 0 1 2 3 3 4 4 3 4 6 6 6 5 3 2 1 1 3 7 10 11
3 3 3 3 4 4 4 3 1 0 0 0 0 0 0 0 0 0 0 0 0 0 0 0 1 2 2 2 2 2 4 6 6 5 5 4 3 2 1 1 2 5 6
1 2 3 3 3 3 2 1 0 0 0 0 0 0 0 0 0 0 0 0 0 0 0 0 0 1 1 1 0 1 3 4 3 3 4 4 4 3 1 1 0 0 1
0 1 2 3 3 2 1 0 0 0 0 0 0 0 0 0 0 0 0 0 0 0 0 1 0 0 0 0 0 1 1 1 1 1 2 3 4 4 3 2 1 1 1
0 0 1 2 2 1 0 0 0 0 0 0 0 0 0 0 0 0 0 0 0 0 0 0 0 0 0 0 0 0 0 0 0 0 1 2 4 5 5 4 2 2 2
0 0 0 1 1 1 0 0 0 0 0 0 0 0 0 0 0 0 0 0 0 0 0 0 0 0 0 0 0 0 0 0 0 0 0 1 2 3 4 4 3 2 2
0 0 0 0 0 0 0 0 0 0 0 0 0 0 0 0 0 0 0 0 0 0 0 0 0 0 0 0 0 0 0 0 0 0 0 0 0 1 3 3 3 2 2
0 0 0 0 0 0 0 0 0 0 0 0 0 0 0 0 0 0 0 0 0 0 0 0 0 0 0 0 0 0 0 0 0 0 0 0 0 0 1 3 4 4 3
0 0 0 0 0 0 0 0 0 0 0 0 0 0 0 0 0 0 0 0 0 0 0 0 0 0 0 0 0 0 0 0 0 0 0 0 0 0 0 2 5 5 4
Wind_Speed
8 10 9 8 8 8 9 8 7 7 6 5 5 5 5 4 5 5 4 4 4 4 4 4 5 5 5 5 6 6 7 7 7 8 8 8 8 8 8 7 6 7 10
9 11 11 9 8 8 8 8 7 7 6 5 5 5 4 4 3 3 3 3 3 3 4 4 4 4 4 5 5 5 5 5 5 5 6 6 6 6 7 8 8 6 9
9 10 9 9 8 7 7 7 7 6 6 5 5 5 4 3 3 3 2 2 2 2 3 3 3 3 3 4 4 4 4 3 3 3 3 3 4 6 6 7 7 8 8
9 9 8 8 8 7 7 6 6 5 5 4 4 4 4 3 2 2 2 1 1 2 2 2 2 2 3 4 4 3 3 2 3 3 2 3 4 7 6 5 6 6 6
8 8 9 9 8 7 6 6 5 4 4 3 3 3 2 2 2 2 1 1 1 1 2 2 2 2 3 3 4 3 3 3 4 5 2 1 4 7 6 5 5 5 5
8 8 8 8 7 6 5 5 4 3 3 2 2 2 1 1 1 1 2 2 1 0 1 2 2 2 3 3 4 4 4 4 4 4 3 2 3 7 7 5 4 4 4
7 7 7 8 6 5 5 4 3 2 2 1 1 1 1 1 1 1 1 1 1 1 1 2 3 4 4 4 5 5 5 5 5 3 2 2 4 8 7 6 5 4 3
7 6 6 7 5 5 4 3 2 2 2 1 1 1 1 2 2 2 2 2 2 2 2 3 3 4 5 6 6 5 5 6 6 5 2 2 6 8 7 6 6 5 4
5 5 4 4 4 4 3 3 2 2 1 2 2 2 2 3 3 3 3 3 3 4 3 4 4 5 6 6 7 6 6 7 5 3 3 2 6 8 7 7 7 6 6
5 4 4 3 3 3 2 2 2 1 0 1 2 2 2 3 4 4 4 4 4 4 4 5 5 6 6 7 7 8 8 7 6 5 3 3 8 9 8 8 8 7 7
4 3 3 3 3 2 1 1 0 1 1 2 2 3 3 2 3 3 4 4 4 5 6 6 6 7 6 7 8 9 7 4 5 4 3 5 8 9 9 9 9 8 8
3 3 3 3 2 2 1 1 0 0 0 1 1 1 1 2 2 2 2 5 6 6 7 8 8 7 6 4 6 8 4 6 5 4 4 8 9 10 10 10 9 9 9
3 4 4 3 3 2 1 1 1 1 1 1 1 2 2 2 1 1 1 2 3 5 4 5 5 4 4 4 4 4 6 5 4 4 4 9 10 11 11 11 11 10 10
3 3 3 3 3 3 2 2 1 1 1 1 2 2 2 1 1 1 1 1 1 2 2 2 3 4 5 5 5 5 6 5 4 3 4 9 10 11 12 12 12 12 11
3 3 3 3 3 2 2 2 2 1 1 2 2 2 2 1 1 2 2 1 2 2 2 2 3 4 4 4 4 5 5 5 5 4 3 8 9 10 12 13 13 12 12
3 2 2 2 2 2 2 2 2 2 1 2 2 2 2 2 2 2 2 2 2 2 2 2 3 3 3 3 4 4 4 4 4 4 3 5 9 10 11 13 13 13 13
2 3 2 2 2 2 2 3 2 2 2 2 2 3 3 2 2 2 2 2 2 3 3 2 3 3 3 3 4 4 3 3 4 4 4 3 4 8 10 12 12 12 13
2 2 2 2 2 2 2 2 2 2 2 2 2 2 4 4 3 3 2 2 2 2 2 2 2 2 3 3 3 3 3 3 4 4 4 3 3 4 7 11 11 11 12
2 2 1 2 2 2 2 2 2 2 2 2 2 2 3 4 4 3 2 3 3 2 2 3 2 2 3 3 3 3 3 3 4 4 4 3 3 3 4 7 10 10 11
2 2 1 1 2 2 1 1 2 2 2 2 2 3 4 4 5 4 3 3 3 2 2 2 3 3 2 3 4 4 4 4 3 3 4 3 2 3 2 3 4 5 8
2 1 1 1 2 2 1 1 2 2 2 2 2 3 4 5 5 4 4 4 3 2 3 3 3 3 2 2 3 4 4 4 4 3 3 2 2 2 2 2 2 3 3
2 1 1 1 2 2 1 1 1 1 1 1 2 3 4 4 4 4 4 3 3 3 3 3 3 2 2 2 2 3 3 3 2 3 2 2 3 2 2 3 2 2 2
2 1 1 2 2 2 2 1 1 1 1 2 2 2 3 3 4 4 5 4 4 3 2 3 3 3 2 2 1 2 2 3 3 2 2 2 2 2 2 2 3 2 3
2 2 1 1 1 1 1 1 1 1 1 2 2 2 3 3 4 4 4 4 4 3 3 3 3 3 3 2 2 2 3 2 2 3 3 2 3 3 3 3 3 3 2
3 2 1 0 0 1 1 1 1 1 1 1 2 2 2 3 3 4 4 4 4 3 3 4 4 3 3 2 2 2 3 3 3 4 5 3 3 3 3 3 3 2 2
3 2 2 1 1 0 0 1 0 1 1 2 2 2 2 2 2 4 4 3 3 3 3 3 3 4 3 3 3 2 2 2 3 3 5 4 4 3 3 3 3 2 2
Wind_Direction
107 112 106 100 96 95 93 89 89 88 90 94 94 92 93 97 99 96 93 94 103 114 119 116 108 102 97 94 92 88 83 84 85 84 81 79 80 81 77 73 79 82 83
113 115 105 98 94 93 93 90 85 84 84 86 92 93 92 93 102 107 103 102 106 112 121 122 117 110 105 105 104 101 100 102 104 105 108 97 91 87 81 70 72 90 88
107 110 107 97 94 91 90 88 86 86 84 82 84 88 89 88 88 89 110 122 125 123 122 126 126 125 121 117 116 114 117 128 143 160 171 151 121 107 96 86 87 94 91
104 108 105 98 94 92 90 87 85 86 86 82 80 78 75 75 74 83 80 106 154 145 135 131 131 134 137 137 137 136 147 183 217 242 223 175 139 126 118 107 102 101 97
100 104 103 98 95 93 89 86 81 78 79 76 72 70 65 62 53 49 49 53 70 131 157 158 153 154 152 157 162 168 191 230 248 257 262 125 122 139 137 128 118 113 108
102 102 105 98 94 92 90 84 78 72 67 68 61 54 52 42 18 11 12 22 37 73 182 198 193 184 182 182 188 196 213 238 257 252 243 164 130 147 149 147 144 139 132
99 102 109 100 98 94 89 86 76 64 51 44 25 354 340 319 313 320 330 334 323 278 234 223 219 210 205 208 210 215 225 245 249 259 242 155 144 155 160 167 170 172 167
101 107 111 102 101 98 90 87 71 47 28 4 327 306 293 286 281 278 279 270 264 265 255 244 237 232 221 217 221 227 232 244 251 251 233 160 156 162 174 183 189 194 194
91 97 105 111 104 95 87 85 79 56 19 342 320 299 290 285 271 262 258 254 252 253 257 256 248 241 234 227 226 231 235 240 263 265 246 175 167 175 188 196 203 206 208
80 83 84 87 89 90 99 98 85 73 311 291 288 282 277 269 263 255 249 250 251 252 255 258 257 249 244 237 232 233 235 242 247 254 251 190 177 190 201 207 213 213 214
76 73 72 68 70 65 57 69 105 220 237 262 265 255 254 246 242 242 232 241 251 252 252 253 254 252 248 240 235 233 231 235 233 235 233 206 196 203 209 213 216 219 221
75 68 64 48 43 40 25 33 334 340 354 293 309 285 253 257 260 272 253 244 246 247 249 251 251 250 245 236 234 228 228 233 237 227 219 203 204 212 215 214 213 218 223
69 54 55 38 25 23 17 11 353 341 327 301 322 319 302 294 287 291 274 252 245 241 240 247 242 239 236 233 224 217 226 229 228 229 214 202 204 214 220 219 218 219 222
69 53 50 39 32 23 15 357 344 356 341 328 327 315 319 319 313 298 287 272 260 250 250 249 247 243 244 242 238 229 227 226 225 223 210 202 206 214 222 224 225 223 224
67 50 40 35 36 25 15 345 1 355 344 318 320 317 337 325 310 315 304 298 285 278 267 264 266 267 262 255 252 250 243 232 232 231 213 204 207 213 221 227 229 228 228
68 50 32 34 38 24 15 3 357 354 338 327 334 332 338 324 316 317 310 305 300 298 284 267 271 276 273 270 269 268 264 252 243 236 219 208 207 211 220 227 231 232 233
73 48 25 22 39 29 16 3 352 340 344 346 338 332 338 329 320 315 303 304 305 305 306 304 296 297 293 287 282 279 274 267 265 252 237 214 206 211 216 226 235 237 236
85 57 24 23 29 25 16 357 335 336 345 344 343 348 348 341 338 325 313 302 303 312 313 311 305 307 299 293 289 286 283 275 266 260 250 232 212 205 214 221 228 236 239
87 69 30 35 37 28 10 347 334 336 346 347 359 2 349 347 345 338 325 317 320 312 305 304 310 300 293 294 289 286 287 283 277 271 259 249 237 219 209 215 221 229 236
92 78 50 33 37 29 14 4 355 356 352 359 1 357 353 349 349 344 328 325 325 317 313 311 300 298 295 297 298 295 288 282 280 275 266 257 250 243 227 213 212 226 231
103 94 73 39 21 34 29 16 4 356 346 347 352 0 359 350 348 342 330 325 324 316 311 310 306 307 307 313 305 300 281 263 259 260 268 281 281 275 261 232 212 214 223
124 102 69 56 26 27 32 2 327 329 323 323 347 2 355 348 346 338 332 326 323 317 320 318 317 310 309 319 295 294 298 293 280 268 251 250 267 276 273 262 234 214 224
125 109 56 46 20 17 25 8 356 352 334 357 356 351 344 344 344 336 330 329 326 322 310 311 306 297 294 292 277 260 274 276 310 284 271 257 260 261 266 268 260 250 238
132 114 77 47 21 2 9 4 338 336 329 324 331 331 341 349 343 337 331 330 328 324 319 312 316 302 288 285 292 282 267 273 279 295 292 291 285 268 265 266 256 252 239
133 129 133 151 316 351 3 351 329 330 314 315 327 332 339 340 339 336 336 335 332 327 324 321 319 313 298 280 276 284 283 289 271 265 281 288 288 272 266 262 251 246 244
137 138 159 194 231 276 337 340 332 310 315 323 326 324 326 328 334 336 333 331 328 324 319 311 312 314 306 295 287 280 275 268 271 266 270 281 282 278 275 264 250 231 236